Regional Weather Roundup
Issued by NWS Northern Indiana

Home | Current Version | Previous Version | Graphics & Text | Print | Product List | Glossary On
Versions: 1 2 3 4 5 6 7 8 9 10 11 12 13 14 15 16 17 18 19 20 21 22 23 24 25 26 27 28 29 30 31 32 33 34 35 36 37 38 39 40 41 42 43 44 45 46 47 48 49 50
000
ASUS43 KIWX 210410
RWRIWX

KIWX WEATHER ROUNDUP
NATIONAL WEATHER SERVICE NORTHERN INDIANA
1200 AM EDT TUE OCT 21 2014

NOTE: "FAIR" INDICATES FEW OR NO CLOUDS BELOW 12,000 FEET WITH NO
SIGNIFICANT WEATHER AND/OR OBSTRUCTIONS TO VISIBILITY.

* THESE STATIONS ARE NOT UNDER NWS QUALITY CONTROL. THEY ALSO MAY NOT
  REPORT WEATHER SUCH AS PRECIPITATION OR FOG.

INZ001>027-210500-
NORTHERN INDIANA

CITY           SKY/WX    TMP DP  RH WIND       PRES   REMARKS
GARY*          CLOUDY    55  44  66 N12G17    29.99S
VALPARAISO     LGT RAIN  51  45  79 N6        29.99R
MICHIGAN CITY* CLOUDY    50  41  71 N10       29.99S
LAPORTE*       CLOUDY    51  46  80 NW8       29.98S
KNOX*          CLOUDY    50  45  81 NW3       29.97S
SOUTH BEND     LGT RAIN  51  46  83 N7        29.98R
GOSHEN         CLOUDY    51  44  77 NW12      29.95R
MONTICELLO*    CLOUDY    50  46  88 N5        29.97S
LOGANSPORT*    CLOUDY    50  45  81 NW5       29.97S
ROCHESTER*     DRIZZLE   52  48  87 NW8       29.97R
WARSAW*        CLOUDY    50  45  81 NW5       29.95R
ANGOLA*        CLOUDY    50  45  81 NW7       29.92S
FORT WAYNE     MOCLDY    51  45  79 W6        29.94R
HUNTINGTON*    CLOUDY    50  46  84 NW7       29.94S
PERU/GRISSOM   MOCLDY    50  50 100 NW6       29.96R
MARION*        MOCLDY    51  45  82 N5        29.95S

$$
INZ028>050-210500-
CENTRAL INDIANA

CITY           SKY/WX    TMP DP  RH WIND       PRES   REMARKS
LAFAYETTE      CLOUDY    51  47  86 N3        29.98R
KOKOMO*        CLEAR     48  45  87 NW6       29.97R
MUNCIE*        CLOUDY    53  49  86 NW6       29.94R
INDIANAPOLIS   CLOUDY    54  46  74 N12       29.96R

$$
MIZ043>046-050>051-056>058-064>065-071>073-077>080-210500-
SOUTHWEST LOWER MICHIGAN

CITY           SKY/WX    TMP DP  RH WIND       PRES   REMARKS
BATTLE CREEK   CLOUDY    49  42  77 NW8       29.93S
BENTON HARBOR  CLOUDY    50  44  80 VRB3      29.97R
COLDWATER*     CLOUDY    51  44  78 NW9       29.92S
HILLSDALE*     CLOUDY    51  47  86 N8        29.90R
HOLLAND        CLOUDY    50  44  80 VRB7      29.97S
GRAND RAPIDS   MOCLDY    48  43  82 NW10      29.94S
KALAMAZOO      CLOUDY    48  41  76 N10       29.94S
STURGIS*       CLOUDY    48  45  87 NW7       29.93S
THREE RIVERS*  CLOUDY    50  43  76 N5        29.94S

$$
OHZ001>008-015>018-024>025-210500-
NORTHWEST OHIO

CITY           SKY/WX    TMP DP  RH WIND       PRES   REMARKS
WAUSEON*       CLOUDY    52  50  93 NW6       29.88S
DEFIANCE       CLOUDY    53  48  83 NW7       29.90R
FINDLAY        PTCLDY    51  48  89 W8        29.87S
TOLEDO EXPRESS MOCLDY    51  48  89 NW3       29.88R
TOLEDO METCALF CLOUDY    54  49  83 NW10      29.88R
LIMA           PTCLDY    51  48  89 NW7       29.89R

$$
AND FOR LAKE MICHIGAN COASTAL AND OPEN LAKE BUOY OBSERVATIONS

STATION/POSITION TEMP    WIND        PRES    VSBY  WAVE
                 AIR SEA DIR/SP/G                  HT/PER
                 (F)     (DEG/KT/KT) (MB)    (MI)  (FT/S)
CALUMET HARBOR    54     330/  7/ 13 1014.5S
MICHIGAN CITY     52     340/ 20/ 22   N/A
SAINT JOSEPH      53                 1015.6F
SOUTH LAKE BUOY   52 54  340/ 17/ 19 1015.3R         3/ 5

$$
&&



USA.gov is the U.S. government's official web portal to all federal, state and local government web resources and services.